When you browse on this site, cookies collect data to enhance your experience and personalize the content and advertising you see.
Visit our Privacy Policy to learn more. By continuing to use the site, you agree to this use of cookies and data.
  • In Germany
  • List of Countries
  • For 7 days
  • Water Temperature
  • Weather Map
  • Weather Widgets
  • user-avatar
    Login

    Hourly Weather Saidpur

    Today, 23 September, Monday

    Time Temperature Precipitation Wind Pressure Humidity
    00:00 +28°C° 0 mm 1 mps 755 mmHg 84%
    01:00 +28°C° 1.6 mm 1 mps 755 mmHg 86%
    02:00 +27°C° 1.6 mm 1 mps 755 mmHg 87%
    03:00 +27°C° 1.6 mm 1 mps 754 mmHg 89%
    04:00 +27°C° 1.2 mm 1 mps 755 mmHg 89%
    05:00 +27°C° 1.2 mm 1 mps 755 mmHg 89%
    06:00 +27°C° 0 mm 1 mps 756 mmHg 87%
    07:00 +27°C° 0.5 mm 2 mps 756 mmHg 86%
    08:00 +28°C° 0.5 mm 2 mps 756 mmHg 85%
    09:00 +29°C° 0.5 mm 2 mps 756 mmHg 84%
    10:00 +30°C° 0.2 mm 2 mps 756 mmHg 78%
    11:00 +31°C° 0.2 mm 2 mps 755 mmHg 73%
    12:00 +32°C° 0 mm 2 mps 756 mmHg 63%
    13:00 +34°C° 0 mm 2 mps 755 mmHg 63%
    14:00 +34°C° 0 mm 2 mps 754 mmHg 62%
    15:00 +33°C° 0 mm 1 mps 753 mmHg 61%
    16:00 +32°C° 0 mm 2 mps 753 mmHg 65%
    17:00 +32°C° 0 mm 2 mps 754 mmHg 69%
    18:00 +31°C° 0 mm 2 mps 754 mmHg 73%
    19:00 +30°C° 0.4 mm 2 mps 754 mmHg 76%
    20:00 +29°C° 0.4 mm 2 mps 755 mmHg 78%
    21:00 +29°C° 0.4 mm 2 mps 756 mmHg 81%
    22:00 +28°C° 1.6 mm 2 mps 756 mmHg 83%
    23:00 +28°C° 1.6 mm 2 mps 756 mmHg 86%

    Tomorrow, 24 September, Tuesday

    Time Temperature Precipitation Wind Pressure Humidity
    00:00 +27°C° 1.6 mm 2 mps 756 mmHg 89%
    01:00 +27°C° 2.1 mm 2 mps 756 mmHg 90%
    02:00 +27°C° 2.1 mm 2 mps 755 mmHg 91%
    03:00 +27°C° 2.1 mm 1 mps 755 mmHg 92%
    04:00 +27°C° 1.9 mm 2 mps 755 mmHg 93%
    05:00 +27°C° 1.9 mm 2 mps 755 mmHg 93%
    06:00 +27°C° 1.9 mm 2 mps 756 mmHg 93%
    07:00 +28°C° 0.4 mm 2 mps 756 mmHg 89%
    08:00 +29°C° 0.4 mm 3 mps 756 mmHg 85%
    09:00 +30°C° 0.4 mm 3 mps 757 mmHg 81%
    10:00 +31°C° 1.2 mm 3 mps 756 mmHg 75%
    11:00 +33°C° 1.2 mm 3 mps 756 mmHg 69%
    12:00 +35°C° 1.2 mm 3 mps 756 mmHg 63%
    13:00 +34°C° 2.8 mm 3 mps 755 mmHg 65%
    14:00 +34°C° 2.8 mm 2 mps 754 mmHg 67%
    15:00 +34°C° 2.8 mm 2 mps 754 mmHg 70%
    16:00 +32°C° 2.3 mm 2 mps 754 mmHg 74%
    17:00 +30°C° 2.3 mm 2 mps 754 mmHg 78%
    18:00 +29°C° 2.3 mm 2 mps 754 mmHg 82%
    19:00 +29°C° 0.5 mm 2 mps 755 mmHg 83%
    20:00 +29°C° 0.5 mm 3 mps 756 mmHg 85%
    21:00 +28°C° 0.5 mm 3 mps 757 mmHg 86%
    22:00 +28°C° 0.2 mm 2 mps 757 mmHg 87%
    23:00 +28°C° 0.2 mm 2 mps 757 mmHg 88%

    Day after tomorrow, 25 September, Wednesday

    Time Temperature Precipitation Wind Pressure Humidity
    00:00 +27°C° 0.2 mm 2 mps 757 mmHg 90%
    01:00 +27°C° 0.5 mm 2 mps 757 mmHg 90%
    02:00 +27°C° 0.5 mm 2 mps 756 mmHg 90%
    03:00 +27°C° 0.5 mm 2 mps 756 mmHg 91%
    04:00 +27°C° 0.3 mm 3 mps 756 mmHg 92%
    05:00 +26°C° 0.3 mm 3 mps 757 mmHg 92%
    06:00 +26°C° 0.3 mm 3 mps 757 mmHg 93%
    07:00 +26°C° 0.6 mm 3 mps 757 mmHg 93%
    08:00 +27°C° 0.6 mm 3 mps 758 mmHg 92%
    09:00 +27°C° 0.6 mm 3 mps 759 mmHg 92%
    10:00 +27°C° 1.2 mm 3 mps 759 mmHg 92%
    11:00 +27°C° 1.2 mm 2 mps 759 mmHg 91%
    12:00 +27°C° 1.2 mm 2 mps 758 mmHg 91%
    13:00 +27°C° 0.3 mm 2 mps 758 mmHg 89%
    14:00 +27°C° 0.3 mm 2 mps 758 mmHg 88%
    15:00 +28°C° 0.3 mm 2 mps 757 mmHg 87%
    16:00 +27°C° 0 mm 2 mps 757 mmHg 88%
    17:00 +27°C° 0 mm 2 mps 757 mmHg 90%
    18:00 +27°C° 0 mm 2 mps 757 mmHg 92%
    19:00 +27°C° 0 mm 2 mps 758 mmHg 93%
    20:00 +26°C° 0 mm 2 mps 759 mmHg 94%
    21:00 +26°C° 0 mm 2 mps 759 mmHg 94%
    22:00 +26°C° 0.3 mm 1 mps 759 mmHg 94%
    23:00 +26°C° 0.3 mm 1 mps 759 mmHg 94%

    26 September, Thursday

    Time Temperature Precipitation Wind Pressure Humidity
    00:00 +26°C° 0.3 mm 1 mps 759 mmHg 94%
    01:00 +26°C° 0.4 mm 1 mps 759 mmHg 94%
    02:00 +26°C° 0.4 mm 1 mps 759 mmHg 94%
    03:00 +26°C° 0.4 mm 1 mps 758 mmHg 94%
    04:00 +25°C° 0.5 mm 2 mps 758 mmHg 94%
    05:00 +25°C° 0.5 mm 2 mps 758 mmHg 95%
    06:00 +25°C° 0.5 mm 2 mps 758 mmHg 95%
    07:00 +26°C° 0 mm 2 mps 759 mmHg 90%
    08:00 +28°C° 0 mm 2 mps 759 mmHg 85%
    09:00 +29°C° 0 mm 2 mps 760 mmHg 80%
    10:00 +30°C° 0.5 mm 2 mps 759 mmHg 75%
    11:00 +31°C° 0.5 mm 2 mps 759 mmHg 71%
    12:00 +32°C° 0.5 mm 2 mps 758 mmHg 67%
    13:00 +32°C° 0.2 mm 2 mps 758 mmHg 66%
    14:00 +32°C° 0.2 mm 2 mps 757 mmHg 65%
    15:00 +32°C° 0.2 mm 2 mps 756 mmHg 64%
    16:00 +31°C° 0.1 mm 2 mps 756 mmHg 69%
    17:00 +30°C° 0.1 mm 2 mps 756 mmHg 75%
    18:00 +29°C° 0.1 mm 2 mps 756 mmHg 80%
    19:00 +29°C° 0.2 mm 2 mps 756 mmHg 83%
    20:00 +28°C° 0.2 mm 2 mps 757 mmHg 85%
    21:00 +27°C° 0.2 mm 2 mps 758 mmHg 88%
    22:00 +27°C° 0.1 mm 2 mps 758 mmHg 89%
    23:00 +27°C° 0.1 mm 2 mps 758 mmHg 89%

    27 September, Friday

    Time Temperature Precipitation Wind Pressure Humidity
    00:00 +27°C° 0.1 mm 2 mps 758 mmHg 90%
    01:00 +27°C° 0 mm 2 mps 757 mmHg 91%
    02:00 +26°C° 0 mm 1 mps 757 mmHg 92%
    03:00 +26°C° 0 mm 1 mps 756 mmHg 93%
    04:00 +26°C° 0 mm 1 mps 757 mmHg 93%
    05:00 +26°C° 0 mm 1 mps 757 mmHg 94%
    06:00 +26°C° 0 mm 1 mps 757 mmHg 94%
    07:00 +25°C° 0 mm 0 mps 757 mmHg 89%
    08:00 +26°C° 0 mm 0 mps 758 mmHg 83%
    09:00 +28°C° 0 mm 0 mps 758 mmHg 78%
    10:00 +29°C° 0 mm 0 mps 758 mmHg 73%
    11:00 +30°C° 0 mm 0 mps 757 mmHg 68%
    12:00 +33°C° 0 mm 1 mps 757 mmHg 63%
    13:00 +33°C° 0.4 mm 1 mps 756 mmHg 63%
    14:00 +33°C° 0.4 mm 1 mps 755 mmHg 63%
    15:00 +33°C° 0.4 mm 1 mps 754 mmHg 63%
    16:00 +32°C° 0.1 mm 1 mps 754 mmHg 67%
    17:00 +29°C° 0.1 mm 0 mps 754 mmHg 70%
    18:00 +28°C° 0.1 mm 0 mps 754 mmHg 73%
    19:00 +28°C° 0.3 mm 0 mps 754 mmHg 75%
    20:00 +28°C° 0.3 mm 0 mps 755 mmHg 77%
    21:00 +27°C° 0.3 mm 0 mps 755 mmHg 79%
    22:00 +29°C° 0.7 mm 1 mps 755 mmHg 81%
    23:00 +28°C° 0.7 mm 1 mps 755 mmHg 83%

    28 September, Saturday

    Time Temperature Precipitation Wind Pressure Humidity
    00:00 +28°C° 0.7 mm 1 mps 755 mmHg 84%
    01:00 +28°C° 0.1 mm 1 mps 755 mmHg 85%
    02:00 +28°C° 0.1 mm 1 mps 755 mmHg 85%
    03:00 +27°C° 0.1 mm 1 mps 755 mmHg 86%
    04:00 +27°C° 0.3 mm 1 mps 755 mmHg 87%
    05:00 +27°C° 0.3 mm 1 mps 755 mmHg 88%
    06:00 +27°C° 0.3 mm 1 mps 755 mmHg 89%
    07:00 +28°C° 0.1 mm 2 mps 755 mmHg 85%
    08:00 +29°C° 0.1 mm 2 mps 756 mmHg 81%
    09:00 +30°C° 0.1 mm 2 mps 756 mmHg 77%
    10:00 +31°C° 0.9 mm 2 mps 756 mmHg 73%
    11:00 +32°C° 0.9 mm 2 mps 756 mmHg 70%
    12:00 +33°C° 0.9 mm 3 mps 755 mmHg 67%
    13:00 +34°C° 0.5 mm 2 mps 755 mmHg 66%
    14:00 +34°C° 0.5 mm 2 mps 754 mmHg 66%
    15:00 +34°C° 0.5 mm 2 mps 754 mmHg 65%
    16:00 +32°C° 1 mm 2 mps 754 mmHg 71%
    17:00 +30°C° 1 mm 2 mps 754 mmHg 76%
    18:00 +29°C° 1 mm 1 mps 755 mmHg 81%
    19:00 +29°C° 0.7 mm 1 mps 755 mmHg 81%
    20:00 +29°C° 0.7 mm 1 mps 756 mmHg 82%
    21:00 +28°C° 0.7 mm 1 mps 757 mmHg 82%
    22:00 +28°C° 0 mm 1 mps 757 mmHg 82%
    23:00 +28°C° 0 mm 1 mps 757 mmHg 82%
    Show more